Content
SEND FEEDBACK

Daily
Averages
Monthly
Summary
United States of America

LUCAS, KANSAS


Home > North America > United States > Kansas
Elevation: 1510 feet     Latitude: 38 58N     Longitude: 098 29W

WEATHER
 
SELECT A DAY
Number of Records: 195,856;   Date Range: 1/1/95 - 8/12/14
 
SHARE

PRINT THIS DATA

[ ← Previous Day ]
WEATHER ALMANAC - JANUARY 31, 2013
[ Next Day → ]
[ °C ]   °F
Weather ElementAverageHighLow
Temperature19.7 °F25 °F (6:53 am)10 °F (7:53 pm)
Dewpoint12.8 °F19.9 °F (5:53 am)5 °F (7:53 pm)
Humidity75.1 %84 % (5:53 am)63 % (3:53 pm)
Barometer30.25 in30.47 in (9:53 pm)29.99 in (1:53 am)
Wind Speed8.4 mph13.8 mph (3:53 pm)
Weather ElementAverage
Visibility10 mi
Wind DirectionSE (140 °)

Weather ElementTotal
Precipitation---
Heating Degree Days47.5 (Base 65)
Averaged from 22 records on January 31, 2013
WEATHER CONDITIONS BREAKOUT
WIND DIRECTION BREAKOUT
WEATHER BY HOUR - JANUARY 31, 2013
[ °C ]   °F
Local TimeTemperatureDewpointHumidityBarometerVisibilityWind DirectionWind SpeedGust SpeedPrecipitationEventsConditions
1:53 AM21.0 °F15.1 °F78 %29.99 in10.0 miWest (260°)10.4 mphClear
2:53 AM19.0 °F14.0 °F81 %30.00 in10.0 miSW (230°)9.2 mphClear
3:53 AM23.0 °F17.1 °F78 %30.00 in10.0 miWSW (240°)9.2 mphMostly Cloudy
4:53 AM24.1 °F19.0 °F81 %30.01 in10.0 miWSW (240°)6.9 mphOvercast
5:53 AM24.1 °F19.9 °F84 %30.02 in10.0 miNW (320°)4.6 mphOvercast
6:53 AM25.0 °F19.9 °F81 %30.07 in9.0 miNNE (30°)10.4 mphMostly Cloudy
7:53 AM21.9 °F14.0 °F72 %30.11 in10.0 miNE (50°)9.2 mphOvercast
8:53 AM21.9 °F14.0 °F72 %30.19 in10.0 miNNE (30°)9.2 mphMostly Cloudy
9:53 AM23.0 °F15.1 °F72 %30.24 in10.0 miNNE (30°)6.9 mphOvercast
10:53 AM24.1 °F17.1 °F75 %30.28 in10.0 miNorth (10°)12.7 mphOvercast
11:53 AM25.0 °F18.0 °F75 %30.30 in10.0 miNNE (20°)12.7 mphOvercast
12:53 PM24.1 °F15.1 °F69 %30.33 in10.0 miNorthOvercast
2:53 PM23.0 °F12.9 °F65 %30.35 in10.0 miNNE (20°)12.7 mphScattered Clouds
3:53 PM23.0 °F12.0 °F63 %30.36 in10.0 miNorth (350°)13.8 mphClear
4:53 PM21.9 °F10.9 °F63 %30.38 in10.0 miNorth (360°)9.2 mphClear
5:53 PM17.6 °F8.6 °F68 %30.30 in10.0 miNE (40°)4.6 mphClear
6:53 PM14.0 °F7.0 °F74 %30.42 in10.0 miESE (110°)5.8 mphPartly Cloudy
7:53 PM10.0 °F5.0 °F80 %30.46 in10.0 miSSE (150°)5.8 mph0.00 inClear
8:53 PM10.9 °F6.1 °F81 %30.46 in10.0 miSE (140°)5.8 mph0.00 inPartly Cloudy
9:53 PM10.0 °F6.1 °F84 %30.47 in10.0 miSouth (170°)5.8 mphScattered Clouds
10:53 PM12.2 °F6.8 °F79 %30.34 in10.0 miEast (90°)6.9 mphMostly Cloudy
11:53 PM14.0 °F8.1 °F77 %30.45 in10.0 miSouth (190°)4.6 mphOvercast
Hourly data recorded from KRSL, located miles away from Lucas, Kansas







STORIES FROM OUR PARTNERS